{"data":{"norad_id":69959,"epoch":"2026-09-20T04:51:25.619904Z","epoch_age_seconds":43500,"freshness":"FRESH","line1":"1 69959U 26157S   26263.20237986  .00010272  00000+0  31475-3 0  9999","line2":"2 69959  53.1588 335.3638 0001363  86.2613 273.8546 15.34399130 11320","mean_motion":15.3439913,"eccentricity":0.0001363,"inclination_deg":53.1588,"raan_deg":335.3638,"arg_perigee_deg":86.2613,"mean_anomaly_deg":273.8546,"bstar":0.00031475,"rev_number":1132,"period_min":93.84781129275,"perigee_km":461.77341915448,"apogee_km":463.63823290886,"semimajor_km":6840.8428260317,"source":"CELESTRAK","updated_at":"2026-09-20T09:00:44.302185Z"}}